Location: Bazinghen
(50.8246°N, 1.6616°E)
Time: 09:00:24
(UTC+00:00)

Cosmos 2084 - Pass Details

Date: 09 April 2020
Orbit: 571 x 612 km, 62.8° (Epoch: 01 June)

Event Time Altitude Azimuth Distance (km) Brightness Sun altitude
Rises 21:50:57 0° 315° (NW) 2,881 8.3 -25.4°
Reaches altitude 10° 21:53:17 10° 320° (NW) 1,970 7.2 -25.6°
Enters shadow 21:57:22 54° 21° (NNE) 744 4.0 -25.9°
